Location: Castelbiague
(43.0361°N, 0.9246°E)
Time: 10:42:10
(UTC+00:00)

Cosmos 1626 - Visible Passes

Search period start: 23 October 2021 00:00
Search period end: 02 November 2021 00:00
Orbit: 489 x 491 km, 82.5° (Epoch: 22 October)

Date Brightness Start Highest point End Pass type
(mag) Time Alt. Az. Time Alt. Az. Time Alt. Az.
23 Oct 4.1 04:03:12 10° SSE 04:06:24 29° E 04:09:38 10° NNE visible
23 Oct 3.6 05:39:06 10° WSW 05:41:39 18° WNW 05:44:12 10° NNW visible
24 Oct 4.8 03:40:51 10° SE 03:43:32 19° E 03:46:14 10° NE visible
24 Oct 3.1 05:15:30 10° SW 05:18:33 26° WNW 05:21:42 10° NNW visible
25 Oct 5.3 03:20:26 13° E 03:20:42 13° E 03:22:27 10° ENE visible
25 Oct 2.5 04:55:02 37° W 04:55:30 38° WNW 04:59:00 10° N visible
26 Oct 3.0 04:33:48 35° NNW 04:33:48 35° NNW 04:36:09 10° N visible
27 Oct 4.3 04:12:09 18° N 04:12:09 18° N 04:13:12 10° N visible
